Flag for U.S.A. Weather past 2 weeks in Tucson, Arizona, U.S.A.

Now
53 °F

Passing clouds.


Feels Like: 52 °F
Forecast: 51 / 71 °F
Wind: 5 mph from Southeast

Location: Davis-Monthan Air Force Base

Current Time: Mar 1, 2015 at 1:55:55 AM

Latest Report: Mar 1, 2015 at 12:58 AM


Visibility: 10 mi

Pressure: 29.89 "Hg

Humidity: 72%

Dew point: 44 °F

Location of TucsonLocation

Historic Weather in Tucson — Graph

°F

Tucson temperature yesterday

Maximum temperature yesterday: 69 °F (at 4:58 PM)
Minimum temperature yesterday: 52 °F (at 11:58 PM)
Average temperature yesterday: 61 °F

Past Weeks' High & Low Weather Summary

 TemperatureHumidityPressure
High78 °F (Feb 14, 2:58 PM)100% (Feb 16, 4:58 AM)30.15 "Hg (Feb 16, 4:58 AM)
Low38 °F (Feb 25, 6:58 AM)10% (Feb 19, 2:58 PM)29.61 "Hg (Feb 27, 3:58 PM)
Average60 °F47%29.91 "Hg
* Reported Feb 13 11:58 PM — Feb 28 11:58 PM, Tucson, Weather by CustomWeather, © 2015

Note: Actual official high and low records may vary slightly from our data, if they occured in-between our weather recording intervals... More about our weather records

Advertising

Tucson weather history for previous 24 hours

 ConditionsComfort  
Time TempWeatherWind HumidityBarometerVisibility
11:58 PM
Sat, Feb 28
52 °FClear.5 mph74%29.90 "Hg10 mi
10:58 PM54 °FClear.No wind68%29.90 "Hg10 mi
9:58 PM58 °FClear.2 mph60%29.88 "Hg10 mi
8:58 PM62 °FPassing clouds.5 mph53%29.87 "Hg10 mi
7:58 PM64 °FPassing clouds.9 mph50%29.85 "Hg10 mi
6:58 PM66 °FOvercast.10 mph42%29.82 "Hg10 mi
5:58 PM67 °FPartly sunny.10 mph38%29.78 "Hg10 mi
4:58 PM69 °FPartly sunny.12 mph38%29.75 "Hg10 mi
3:58 PM68 °FPartly sunny.13 mph40%29.76 "Hg10 mi
2:58 PM68 °FScattered clouds.10 mph40%29.77 "Hg10 mi
1:58 PM68 °FScattered clouds.14 mph41%29.78 "Hg10 mi
1:04 PM68 °FSunny.16 mph43%29.87 "Hg10 mi
12:58 PM66 °FPassing clouds.15 mph45%29.79 "Hg10 mi
11:58 AM65 °FPassing clouds.16 mph48%29.83 "Hg10 mi
10:58 AM64 °FSunny.25 mph49%29.82 "Hg10 mi
9:58 AM62 °FSunny.21 mph52%29.81 "Hg10 mi
8:58 AM58 °FPassing clouds.12 mph58%29.81 "Hg10 mi
7:58 AM58 °FPassing clouds.12 mph57%29.76 "Hg10 mi
6:58 AM55 °FSunny.6 mph61%29.75 "Hg10 mi
5:58 AM57 °FClear.9 mph56%29.71 "Hg10 mi
4:58 AM57 °FPassing clouds.7 mph52%29.70 "Hg10 mi
3:58 AM55 °FPassing clouds.10 mph52%29.70 "Hg10 mi
2:58 AM57 °FClear.6 mph50%29.70 "Hg10 mi
1:58 AM56 °FClear.5 mph54%29.70 "Hg10 mi
Weather by CustomWeather, © 2015

See weather overviewHow to use our weather pages